Probability
2 3 3 3 3 3 3 3 3 3 1 0 0 0 0 0 0 0 0 0 0 0 0 0 1 1 0 0 0 0 1 2 2 1 0 0 0 0 0 0 0 0 0
3 3 3 3 3 3 3 3 3 3 2 1 0 0 0 0 0 0 0 0 0 0 0 1 1 1 0 0 0 0 0 1 1 0 0 0 0 0 0 0 0 0 0
3 3 3 3 3 3 4 4 3 3 3 2 1 0 0 0 0 0 0 0 0 0 0 1 1 1 0 0 0 0 0 0 0 0 0 0 0 0 0 0 0 0 0
3 3 3 3 3 4 5 5 4 3 3 3 2 1 0 0 0 0 0 0 0 0 0 0 0 0 0 0 0 0 0 0 0 0 0 0 0 0 0 0 1 1 1
3 3 3 4 3 3 4 5 4 3 3 3 3 1 0 0 0 0 0 0 0 0 0 0 0 0 0 0 0 0 0 0 1 0 0 0 0 0 0 0 1 2 2
3 3 4 5 4 3 3 4 3 3 3 3 3 2 0 0 0 0 1 1 1 1 0 0 0 0 0 0 0 0 0 0 0 0 0 0 0 0 0 0 1 1 1
4 4 5 6 5 4 3 3 3 3 3 3 3 2 1 1 1 1 2 2 3 2 1 0 0 0 0 0 0 0 0 0 0 0 0 0 0 0 0 0 0 0 0
5 5 7 7 6 4 3 3 3 3 3 3 3 3 2 2 2 2 3 3 3 2 1 0 0 0 0 0 0 0 0 0 0 0 0 0 0 0 0 0 0 0 0
5 5 6 6 4 3 3 3 3 3 3 3 3 3 3 3 3 3 3 3 3 2 1 0 0 0 0 0 0 0 0 0 0 0 0 0 0 0 0 0 0 0 0
4 4 4 4 3 3 3 3 3 3 3 3 3 3 3 3 3 3 3 3 3 2 1 1 0 0 0 0 0 0 0 0 0 0 0 0 0 0 0 0 0 0 0
3 3 3 3 3 3 3 3 3 3 3 3 3 3 3 3 3 3 3 3 3 3 2 1 0 0 0 0 0 0 0 0 0 0 0 0 0 0 0 0 0 0 0
3 3 3 3 3 3 3 3 3 3 3 3 3 3 3 3 3 3 2 3 3 2 2 1 0 0 0 0 0 0 0 0 0 0 0 0 0 0 0 0 0 0 0
4 3 3 3 3 3 3 3 3 3 3 3 3 3 3 3 3 3 3 2 1 1 1 0 0 0 0 0 0 0 0 0 1 1 0 0 0 0 0 0 0 0 0
5 4 3 3 3 3 3 3 3 3 3 3 3 3 3 3 3 3 2 1 0 0 0 0 0 0 0 0 0 0 0 0 1 1 0 0 0 0 0 1 1 0 0
5 4 3 3 3 3 3 3 3 3 3 3 3 3 3 3 3 2 1 0 0 0 0 0 0 0 0 0 0 0 0 0 1 1 0 0 0 0 0 1 1 1 1
5 4 3 3 3 3 3 3 3 3 3 3 3 3 3 2 1 1 0 0 0 0 0 0 0 0 0 0 0 0 0 0 0 0 0 0 0 0 0 0 1 2 2
4 3 3 3 3 3 3 3 3 3 3 3 3 3 2 1 0 0 0 0 0 0 0 0 0 0 0 0 0 0 0 0 0 0 0 0 0 0 0 0 0 1 2
3 3 3 3 3 3 3 3 3 2 2 2 2 1 1 0 0 0 0 0 0 0 0 0 0 0 0 0 0 0 0 0 0 0 0 0 0 0 0 0 0 0 1
3 3 3 3 3 2 2 2 1 1 1 1 1 0 0 0 0 0 0 0 0 0 0 0 0 0 0 0 0 0 0 0 0 0 0 0 0 0 0 0 0 0 0
3 3 3 2 1 1 1 1 0 0 0 0 0 0 0 0 0 0 0 0 0 0 0 0 0 0 0 0 0 0 0 0 0 0 0 0 0 0 0 0 0 0 0
2 2 2 1 0 0 0 0 0 0 0 0 0 0 0 0 0 0 0 0 0 0 0 0 0 0 0 0 0 0 0 0 0 0 0 0 0 0 0 0 0 0 0
1 1 1 0 0 0 0 0 0 0 0 0 0 0 0 0 0 0 0 0 0 0 0 0 0 0 0 1 1 1 0 0 0 0 0 0 0 0 0 0 0 0 0
0 0 0 0 0 0 0 0 0 0 0 0 0 0 0 0 0 0 0 0 0 0 0 0 0 0 0 1 1 1 0 0 0 0 0 0 0 0 0 0 0 0 0
0 0 0 0 0 0 0 0 0 0 0 0 0 0 0 0 0 0 0 0 0 0 0 0 0 0 0 0 1 1 1 0 0 0 0 0 0 0 0 0 0 0 0
0 0 0 0 0 0 0 0 0 0 0 0 0 0 0 0 0 0 0 0 0 0 0 0 0 0 0 0 0 1 1 1 0 0 0 0 0 0 0 0 0 0 0
0 0 0 0 0 0 0 0 0 0 0 0 0 0 0 0 0 0 0 0 0 0 0 0 0 0 0 0 0 0 1 1 1 0 0 0 0 0 0 0 0 0 0
Wind_Speed
3 3 2 3 5 7 8 9 10 10 11 11 12 12 13 13 12 12 12 12 11 11 12 12 13 13 13 13 13 13 13 13 13 13 13 12 12 12 12 10 8 10 13
5 4 4 4 6 8 9 9 10 11 11 11 12 12 13 13 13 13 13 12 11 11 11 12 13 13 13 13 13 13 13 12 12 11 9 10 11 11 11 11 10 9 12
6 5 5 5 7 8 9 9 10 10 10 11 11 12 12 13 13 13 13 13 12 12 11 12 13 13 13 13 13 13 13 12 11 8 5 7 10 11 11 11 11 12 11
6 5 5 6 8 8 9 9 10 10 10 11 11 11 12 12 13 13 13 13 13 13 12 12 12 13 13 13 13 13 12 12 10 6 5 7 8 11 11 11 11 11 11
6 5 6 7 9 9 9 10 10 10 10 11 11 11 12 12 12 12 12 13 13 13 13 12 12 12 13 13 12 12 12 11 8 6 7 7 7 9 10 10 10 10 10
6 5 7 8 9 9 9 10 10 10 11 11 11 11 11 11 12 12 12 12 13 13 13 13 12 12 12 12 12 11 11 9 6 7 7 7 7 9 9 9 9 10 10
7 6 7 8 9 9 9 10 10 10 10 11 11 11 11 11 12 12 12 12 12 12 13 12 12 12 12 12 12 11 11 8 6 7 7 7 8 10 9 9 9 9 9
7 6 7 8 9 9 9 10 10 10 10 11 11 11 11 12 12 12 12 12 12 12 12 12 12 12 11 11 12 11 11 8 6 7 7 7 10 10 9 9 9 9 9
7 6 6 6 7 8 9 10 10 10 10 10 11 11 11 11 11 12 12 11 12 11 11 12 11 11 11 11 11 11 10 8 6 5 6 6 10 9 9 9 9 9 9
6 6 6 6 6 6 7 9 10 10 10 11 11 11 10 10 10 11 11 11 11 11 11 11 11 11 11 11 10 10 8 5 6 6 5 7 10 9 9 9 8 8 8
5 5 5 5 5 5 6 7 7 8 9 8 8 9 7 5 6 7 10 11 11 11 11 11 10 10 9 9 9 8 5 4 5 5 5 8 9 8 8 8 8 8 8
7 5 4 5 4 4 4 4 3 4 4 4 4 5 4 4 5 6 9 10 10 10 9 10 9 7 5 4 5 5 3 5 4 4 5 10 9 8 8 8 7 7 7
7 6 4 4 4 4 3 3 2 2 3 4 4 4 3 3 3 3 3 4 5 6 5 5 5 4 4 4 3 4 4 3 3 3 5 9 9 8 8 8 6 7 7
8 6 5 4 4 4 3 3 2 2 2 2 3 4 3 2 3 3 3 3 3 3 4 4 3 4 4 5 4 4 4 3 3 3 5 9 9 8 8 7 7 6 6
8 7 6 5 4 4 3 3 2 2 2 3 3 3 3 2 3 3 3 3 4 3 3 3 3 4 4 4 4 4 4 4 3 3 3 8 9 9 8 8 7 6 5
9 8 6 6 5 5 3 3 2 2 2 2 3 3 3 3 2 2 3 3 3 3 3 3 4 3 3 3 4 4 4 3 3 3 3 4 7 8 8 8 7 6 4
9 8 7 6 5 5 4 4 3 3 2 2 2 3 3 3 2 2 2 3 3 3 3 3 4 3 3 3 3 4 3 3 2 3 3 3 3 5 7 8 8 7 5
9 9 8 6 6 6 5 4 3 3 3 2 2 2 3 3 3 2 2 2 2 2 2 3 3 3 2 3 3 3 3 2 2 3 3 3 3 3 5 8 9 8 6
10 9 8 7 7 6 5 4 4 3 3 2 2 2 3 3 3 2 2 2 2 2 2 3 3 2 2 3 2 2 3 2 2 2 3 4 4 3 3 5 7 8 8
9 9 9 8 7 7 5 4 4 3 3 2 2 2 3 2 3 2 2 3 2 2 2 3 3 3 2 2 2 2 2 1 1 2 2 2 3 3 4 4 4 4 6
9 9 9 9 8 6 5 4 4 3 2 2 2 3 3 3 2 2 2 2 2 2 2 2 2 3 3 2 1 2 1 1 1 2 2 2 2 3 3 4 3 3 3
11 10 10 9 8 7 5 4 3 3 2 2 2 2 2 2 2 2 2 2 2 1 2 2 2 2 2 3 2 1 1 1 1 1 2 2 3 3 3 4 4 4 4
11 11 9 9 8 7 7 5 4 3 3 2 2 2 2 2 2 2 2 1 1 1 1 2 2 2 2 2 3 3 2 1 2 1 1 2 3 3 3 3 4 4 4
9 9 9 8 8 8 7 6 7 5 4 3 2 2 2 2 2 2 1 1 1 1 1 2 2 2 2 2 1 2 3 2 2 2 1 1 3 4 4 3 4 3 4
8 8 8 8 8 7 7 7 6 5 4 3 3 3 3 2 2 1 1 1 1 1 1 1 2 2 1 2 2 1 1 1 2 3 3 3 3 3 3 4 3 3 4
8 8 8 8 8 7 7 6 6 6 6 5 5 4 2 2 1 1 1 1 1 1 1 1 1 1 1 2 2 2 2 2 2 3 4 4 4 4 4 4 3 3 3
Wind_Direction
137 125 86 75 77 74 71 66 62 60 58 57 55 52 51 52 51 52 53 56 58 60 63 65 66 67 68 69 69 69 68 65 64 64 65 65 69 73 74 68 72 80 75
136 129 94 87 85 81 75 71 67 63 60 58 57 55 52 53 52 49 51 52 55 59 61 62 64 65 66 66 67 67 67 66 63 61 61 71 66 69 70 62 56 74 75
130 126 116 93 91 87 80 75 71 67 63 61 58 56 54 53 53 50 48 49 52 56 59 61 64 64 65 64 65 65 64 63 60 54 58 73 73 67 70 68 68 76 76
129 126 115 96 96 91 84 77 72 70 66 63 61 58 56 54 54 52 50 49 50 52 56 61 63 64 65 63 63 63 62 60 54 43 63 63 70 69 69 70 73 75 76
126 121 108 101 98 91 84 78 73 70 67 64 63 60 57 56 55 53 52 50 50 51 53 59 63 64 64 63 62 61 60 57 50 52 60 60 65 70 72 70 73 76 75
121 116 110 102 98 91 85 80 76 72 68 65 63 60 57 56 56 53 52 52 52 53 55 57 63 65 64 63 61 58 55 48 55 56 54 55 61 68 73 72 72 73 75
121 113 110 100 97 93 88 82 78 74 71 68 65 62 58 56 55 52 52 52 52 53 54 56 57 61 62 61 59 54 49 36 52 57 53 53 55 61 71 75 75 73 75
117 112 110 101 93 91 87 84 79 74 71 68 65 62 59 56 54 53 52 52 51 53 52 53 55 55 57 58 55 51 44 29 52 55 53 53 49 54 63 70 72 71 72
112 109 104 105 100 93 87 82 79 74 69 67 63 60 57 54 52 50 50 50 50 51 52 51 53 54 53 54 54 51 45 29 46 50 51 50 45 51 57 64 69 68 72
113 110 106 105 101 99 92 81 76 72 69 66 62 57 55 55 53 49 48 48 49 49 50 50 52 51 51 51 50 46 39 34 48 47 44 47 45 50 57 61 65 66 71
123 118 114 111 105 100 95 88 81 74 67 67 65 57 52 57 56 52 46 46 46 47 48 49 53 53 50 52 47 39 34 40 43 40 40 36 39 48 53 57 59 61 66
147 134 124 118 111 108 98 95 85 77 73 62 59 59 56 52 47 47 46 45 44 43 46 46 46 49 40 48 47 37 40 37 41 40 39 32 34 44 48 51 55 57 61
155 145 135 128 122 115 105 97 88 81 74 66 58 51 55 56 52 45 44 43 43 39 39 39 38 34 34 37 34 40 36 32 35 37 37 30 30 37 44 46 52 55 58
160 154 145 139 131 123 114 106 101 93 82 72 62 51 49 52 47 43 39 33 30 29 27 24 28 36 36 38 39 40 36 31 32 33 38 32 30 34 38 40 43 52 57
167 161 154 150 142 131 121 113 104 96 86 79 66 53 46 50 48 46 42 35 31 25 25 24 27 33 35 33 34 34 34 30 34 35 41 38 31 29 30 31 32 40 54
174 168 159 157 149 139 131 123 111 101 93 85 74 64 53 50 48 46 45 36 31 24 21 21 25 24 28 29 33 34 30 24 35 38 32 40 38 29 26 24 22 24 39
176 169 166 160 152 144 135 126 112 105 101 87 75 70 62 53 53 53 49 41 32 26 26 27 28 26 32 31 33 33 29 20 29 37 34 25 30 34 25 20 16 17 21
175 171 168 161 154 147 134 126 113 106 102 90 81 77 69 60 52 55 53 45 35 32 31 31 25 22 27 25 24 23 21 14 28 35 38 30 22 18 29 25 20 16 12
177 170 166 163 157 148 133 122 110 104 98 93 87 79 73 68 60 62 56 46 37 37 37 32 29 16 26 24 15 17 10 3 26 43 45 41 35 25 18 23 18 15 12
177 170 165 162 157 148 137 125 116 108 103 94 89 82 81 74 68 67 67 53 39 42 42 36 33 26 24 23 9 17 5 1 27 42 37 42 35 24 14 7 1 7 10
176 173 169 166 162 158 155 151 147 140 125 109 91 85 82 76 71 69 72 66 46 42 41 37 36 38 33 16 1 11 6 55 63 34 31 25 25 16 9 4 353 351 355
180 177 173 171 168 169 166 155 147 136 127 114 103 90 83 75 65 66 74 70 57 51 48 42 32 26 20 2 339 298 273 196 93 15 9 4 360 358 357 358 355 353 348
184 181 177 172 168 165 158 145 135 131 133 134 124 106 85 77 68 59 67 67 57 43 37 23 12 16 5 5 353 324 304 318 338 279 327 343 352 348 345 343 339 341 344
182 177 172 169 166 162 160 164 165 166 163 155 144 133 114 96 86 71 63 59 55 34 28 10 3 351 345 341 348 353 340 332 298 301 279 311 332 330 331 328 323 332 338
169 168 166 163 163 164 166 167 170 165 154 143 144 141 129 113 97 81 61 53 49 27 11 5 359 349 330 317 322 320 319 313 292 277 287 305 309 309 317 313 314 327 332
164 165 165 162 161 162 165 168 172 168 162 156 157 153 143 133 122 105 77 46 35 22 360 346 342 334 321 314 309 304 295 292 306 297 288 301 304 306 304 299 304 315 320